Wind_Speed
33 32 32 31 31 31 30 30 29 29 29 28 28 28 29 29 28 28 28 28 28 29 29 28 27 27 28 30 32 34 33 31 29 28 28 29 31 31 31 31 30 28 26 24 23 23 25 26 26 26 25 25 24 23 24 25 25 25 24 23 22 21 20 19 19 18 18 17 16 15 15 15 16 17 17 16 14 13 13 13 13 13 14 14 14 14
33 33 32 32 31 31 30 29 29 28 28 28 28 28 28 28 28 28 28 28 28 29 28 28 27 27 28 30 32 33 33 32 31 30 30 31 32 32 32 31 29 27 25 24 23 24 27 27 27 26 26 25 24 23 24 24 25 25 24 23 22 21 20 19 18 17 17 16 16 15 15 16 16 17 16 15 14 13 13 13 13 13 14 14 14 14
34 33 33 32 31 31 30 29 28 28 27 27 27 28 28 28 27 27 27 28 28 28 28 27 26 26 27 29 30 31 31 32 31 31 31 31 31 31 31 30 28 26 24 23 24 26 28 28 28 27 26 25 24 24 24 24 24 24 24 23 22 21 19 18 18 17 17 16 16 15 15 16 16 16 16 15 14 13 13 13 13 13 14 14 14 14
33 33 32 31 31 30 30 29 28 27 27 27 27 27 27 27 27 27 27 27 27 27 27 26 25 25 26 27 28 29 30 31 32 32 31 31 31 31 30 29 27 25 23 23 24 27 29 29 29 28 27 26 25 24 24 23 23 23 23 23 22 21 19 18 17 17 16 16 16 15 15 16 16 16 15 14 14 13 13 13 13 13 14 14 14 14
33 32 31 31 30 30 29 29 28 28 27 27 27 27 27 27 27 27 27 27 27 26 25 24 25 25 26 27 28 29 31 32 32 31 30 30 30 30 29 28 26 24 22 23 24 27 29 30 29 29 28 27 26 25 24 23 22 22 23 22 21 20 19 18 17 17 16 16 16 15 15 15 15 15 15 14 14 13 13 13 13 14 14 14 14 14
33 32 31 30 29 29 29 28 28 28 28 27 27 27 26 26 26 27 27 27 26 25 24 25 26 28 29 29 30 31 31 31 31 29 29 28 29 29 28 27 25 23 22 22 25 27 30 30 30 29 28 27 27 25 24 22 22 22 22 22 20 19 18 17 17 17 16 16 16 16 15 15 15 15 14 14 14 13 13 13 14 14 14 14 14 14
32 31 30 29 29 29 28 28 28 28 28 28 27 27 26 26 27 27 27 26 25 24 25 26 28 30 31 31 31 31 31 31 30 30 29 29 29 28 27 26 24 22 22 23 26 28 30 31 31 30 29 28 27 26 24 22 22 22 21 21 19 18 17 17 17 17 16 16 16 15 15 15 15 14 14 14 14 14 13 14 14 14 14 14 14 14
32 30 29 28 28 28 28 28 28 28 28 28 28 27 27 27 27 27 27 27 26 26 27 29 30 32 33 33 33 33 33 33 33 33 33 32 31 30 28 26 23 22 23 25 28 30 31 31 32 31 30 29 28 26 24 23 22 21 21 20 18 17 17 17 17 16 16 16 15 15 15 14 14 14 14 14 14 14 14 14 14 14 14 14 14 14
31 30 29 28 28 28 28 28 28 27 27 28 28 28 27 27 27 27 28 28 28 28 29 31 32 33 34 35 35 36 36 36 36 36 35 34 33 32 30 27 24 23 24 26 29 30 31 32 32 31 30 29 27 26 24 22 21 20 20 19 18 16 16 16 16 16 15 15 15 14 14 14 14 14 14 14 14 14 14 14 14 14 14 14 14 14
30 29 29 28 27 28 28 28 28 27 27 28 28 28 28 28 28 28 28 28 29 29 30 31 32 33 34 35 36 36 37 37 37 36 35 34 33 32 30 27 25 24 25 28 29 31 32 32 31 30 29 28 26 25 23 21 20 19 19 18 17 16 15 15 15 15 15 14 14 14 14 14 14 14 14 14 14 14 14 14 14 14 14 14 14 14
30 29 28 28 28 28 28 28 28 28 28 28 29 29 29 28 28 28 29 29 29 29 29 30 31 32 33 34 34 35 35 35 35 35 34 33 32 30 29 27 25 25 26 28 30 31 31 31 30 29 27 26 24 23 21 20 19 18 18 17 16 15 15 15 15 14 14 14 13 14 14 14 14 14 14 14 14 14 14 14 14 14 14 14 14 14
30 29 29 28 28 28 28 29 29 29 29 29 30 30 30 30 30 29 29 29 29 29 29 30 31 31 32 33 33 34 33 33 33 33 32 31 30 29 28 27 26 26 27 28 29 30 29 29 28 27 25 24 22 21 19 18 17 17 17 16 15 14 14 14 14 14 14 13 13 14 14 14 14 15 15 14 15 14 14 14 15 15 14 14 14 14
30 30 29 29 29 29 29 29 30 30 30 30 31 31 31 31 30 30 30 30 30 30 31 31 32 32 33 33 33 34 33 33 32 31 31 30 30 29 28 27 27 27 28 28 28 28 27 27 26 25 23 22 20 19 17 17 17 16 16 15 14 14 13 13 13 13 13 13 14 14 15 15 15 15 15 15 15 15 15 15 15 15 15 14 14 14
31 31 31 31 31 30 30 31 31 31 32 31 32 32 32 32 32 32 32 32 32 32 32 33 33 34 34 34 34 33 33 32 31 30 30 30 29 29 28 27 27 27 27 27 27 26 26 25 24 23 21 20 18 17 16 16 16 16 15 14 13 13 12 13 13 13 13 14 14 15 15 15 15 15 15 15 15 15 15 15 15 15 15 15 15 15
32 32 32 32 32 32 32 32 32 33 33 33 33 33 34 34 33 33 33 33 33 33 33 33 34 34 34 34 34 33 33 32 31 30 29 29 29 29 28 28 27 27 27 26 26 25 25 24 22 21 19 18 17 16 16 15 15 15 14 13 12 12 12 13 13 14 14 14 15 15 15 15 15 15 15 15 15 15 15 15 15 15 15 15 15 15
33 33 33 33 33 33 33 33 33 33 34 34 34 35 35 35 34 34 34 34 34 34 34 34 34 34 34 34 33 32 32 31 30 30 29 29 29 29 28 28 27 27 27 26 25 24 24 22 21 19 17 17 16 16 15 15 14 13 13 12 12 13 13 14 14 15 15 15 15 15 15 15 15 15 15 15 15 15 15 15 15 15 15 15 15 15
34 34 34 34 34 34 34 34 34 34 34 35 35 35 35 35 35 35 35 34 34 34 34 34 34 34 34 33 32 32 31 31 30 29 29 29 29 29 28 28 27 27 26 25 25 24 23 21 20 18 17 17 17 16 15 14 13 13 13 13 14 14 15 15 16 15 15 15 15 15 15 15 15 15 15 15 15 15 15 15 15 15 15 15 15 15
34 34 35 35 35 35 35 35 35 35 35 35 36 36 36 36 36 35 35 35 34 34 34 34 34 34 33 33 32 31 30 30 30 30 29 29 28 28 28 27 27 26 26 25 24 24 22 21 20 19 18 18 17 16 15 14 14 14 15 16 16 16 17 16 16 16 15 15 15 15 15 15 15 15 15 15 15 15 15 15 15 15 15 15 15 15
35 35 35 35 35 36 36 36 35 35 35 35 36 36 36 36 36 36 35 35 34 34 33 33 33 33 33 32 31 30 29 30 30 30 29 28 28 28 27 27 26 26 25 25 24 24 23 22 21 20 19 18 17 16 15 16 16 17 18 18 18 17 17 17 16 16 15 15 15 15 15 15 15 15 15 16 16 16 16 16 16 16 16 16 16 16
35 35 35 35 36 36 37 36 36 35 35 36 36 36 36 36 36 35 35 34 34 33 33 33 33 33 33 31 29 29 29 30 30 29 28 27 27 27 27 26 26 25 25 25 24 24 23 22 21 20 19 18 17 17 17 17 18 19 19 19 18 17 17 16 16 15 15 15 15 15 15 15 15 16 16 16 16 16 16 16 16 16 16 16 16 16
35 36 36 36 36 37 37 37 36 35 35 35 36 36 36 35 35 35 34 34 33 33 33 33 33 33 31 29 28 28 29 30 29 28 27 27 26 26 26 26 25 25 25 24 24 23 22 22 21 20 19 19 18 18 18 19 19 19 18 18 17 17 16 16 15 15 15 15 15 15 15 15 16 16 16 16 16 16 16 16 16 16 16 16 16 16
35 35 36 36 36 37 37 37 36 35 35 35 35 35 35 35 34 34 34 33 33 33 33 33 32 31 29 28 28 28 29 29 28 27 26 25 25 26 25 25 25 24 23 23 22 21 20 20 20 20 19 19 18 18 18 18 18 18 17 17 16 16 16 15 15 15 15 15 15 15 15 15 16 16 16 16 16 16 16 16 16 16 16 16 16 17
35 36 36 36 36 36 36 36 35 35 34 35 35 35 35 34 34 33 33 33 32 32 32 31 30 29 28 28 28 28 28 28 27 26 25 24 24 24 24 24 23 22 20 20 19 19 19 19 19 19 19 18 18 18 17 17 17 16 16 16 15 15 15 15 15 15 15 15 15 15 15 15 16 16 16 16 16 16 16 16 16 16 16 17 17 17
35 35 36 35 35 35 35 35 35 34 34 34 34 34 34 33 33 33 32 32 32 31 31 30 29 28 27 27 27 27 26 26 25 24 24 23 22 22 21 20 19 18 17 17 17 18 18 18 18 18 18 17 17 17 17 16 16 15 15 15 15 15 15 14 14 14 14 14 14 15 15 15 15 15 16 16 16 16 16 16 16 16 16 16 16 16
35 35 35 35 35 35 35 34 34 34 34 34 34 33 33 33 32 32 32 31 30 30 29 28 27 27 26 26 26 25 24 24 23 22 21 20 20 19 18 17 16 16 16 16 17 17 17 17 17 17 16 16 16 16 15 15 15 15 14 14 14 14 14 14 14 14 14 14 14 14 15 15 15 15 15 15 16 16 16 16 16 16 16 16 16 16
34 34 34 34 34 34 34 34 33 33 33 33 33 32 32 31 31 30 30 29 28 28 27 26 26 25 24 24 23 23 22 21 21 20 19 18 17 17 16 16 15 15 15 15 16 16 16 15 15 15 15 15 15 15 15 14 14 14 14 14 14 14 14 13 13 13 13 14 14 14 14 15 15 15 15 15 15 15 15 15 15 16 15 16 16 16
33 33 33 33 33 33 32 32 32 32 32 31 31 31 30 29 29 28 27 26 26 25 24 24 23 23 22 21 21 20 19 19 18 17 17 16 16 16 16 15 15 15 14 14 14 14 14 14 14 14 14 15 15 14 14 14 14 14 14 13 13 13 13 13 13 13 13 14 14 14 14 14 14 14 15 15 15 15 15 15 15 15 15 15 15 16
32 32 32 32 31 31 31 30 30 30 30 30 29 29 28 27 26 25 24 24 23 23 22 22 21 20 20 19 18 18 17 17 17 17 17 17 17 16 16 15 14 14 13 13 13 13 14 14 14 15 15 15 15 14 14 14 14 14 13 13 13 13 13 13 13 13 13 13 14 14 14 14 14 14 14 14 14 14 14 15 15 15 15 15 16 16
31 31 30 30 30 29 29 29 29 28 28 28 27 26 25 24 23 22 22 22 21 21 20 20 19 18 18 18 17 17 17 17 17 17 17 17 17 16 16 15 14 14 14 14 14 14 15 15 15 15 15 15 15 14 14 14 14 13 13 13 13 13 13 13 13 13 13 13 14 14 14 14 14 14 14 14 14 14 15 15 15 15 15 16 16 16
29 29 29 28 28 28 27 27 27 27 26 25 25 24 23 22 21 21 20 20 20 19 18 18 18 18 18 18 18 18 18 18 17 17 17 17 17 17 17 16 15 15 15 16 16 16 16 16 16 16 15 15 15 14 14 14 13 13 13 13 13 13 13 13 13 13 13 13 13 14 14 14 14 14 14 14 15 15 15 15 16 16 16 16 17 17
28 27 27 27 27 26 26 26 25 25 24 23 23 22 21 20 20 19 19 19 18 17 17 17 18 18 18 18 18 18 17 17 17 17 17 17 17 18 18 17 17 17 17 17 17 17 16 16 16 15 15 15 14 14 14 13 13 13 13 13 13 13 13 13 13 13 13 14 14 14 14 14 14 15 15 15 15 15 16 16 16 16 17 17 17 17
27 26 26 26 25 25 25 24 24 23 23 22 21 20 20 19 19 19 18 18 17 17 17 17 18 18 18 18 17 17 16 17 17 17 17 18 18 18 18 18 18 17 17 17 17 16 16 16 15 15 15 14 14 13 13 13 13 12 12 12 12 13 13 13 13 13 14 14 14 14 15 15 15 15 15 16 16 16 16 16 16 17 17 17 17 17
25 25 25 24 24 24 24 23 23 22 22 21 20 20 19 19 19 18 18 18 17 17 18 18 18 18 17 17 16 16 16 16 17 17 17 17 18 18 18 18 18 18 17 17 16 16 16 15 15 14 14 14 13 13 13 13 12 12 12 12 12 13 13 13 14 14 14 14 15 15 15 15 15 15 16 16 16 16 16 16 16 17 17 17 17 18
25 24 24 24 23 23 23 23 22 22 21 21 20 20 19 19 19 19 18 18 18 18 18 18 18 17 16 16 15 15 15 16 16 16 17 17 18 18 18 18 17 17 17 16 16 16 15 15 15 14 14 13 13 13 13 12 12 12 12 13 13 13 14 14 14 14 15 15 15 15 15 15 15 15 15 16 16 16 16 16 16 17 17 17 17 18
24 24 23 23 23 23 22 22 22 21 21 20 20 20 20 20 19 19 19 19 18 18 18 18 17 16 16 15 15 15 16 17 17 17 17 17 17 17 17 17 17 17 16 16 15 15 15 15 14 14 13 13 13 13 13 12 12 13 13 13 14 14 14 15 15 15 15 15 15 15 15 15 15 15 15 15 16 16 16 16 16 17 17 17 18 18
23 23 23 23 23 22 22 22 22 21 21 21 21 20 20 20 20 20 20 19 19 19 18 18 17 17 17 17 17 18 18 18 18 18 18 18 17 17 17 17 17 16 16 16 15 15 14 14 14 14 13 13 13 13 13 13 13 13 14 14 14 15 15 15 15 15 15 15 15 15 15 15 15 15 15 16 16 16 16 16 17 17 17 18 18 18
22 22 22 23 23 23 23 22 22 22 21 21 21 21 21 21 21 20 20 20 20 20 19 19 18 18 19 19 20 20 20 20 20 19 19 18 18 17 17 17 17 16 16 16 15 15 14 14 14 14 13 13 13 13 13 13 14 14 14 14 15 15 15 15 15 15 15 15 15 15 15 15 15 15 16 16 16 17 17 17 17 18 18 18 18 19
22 22 22 23 23 23 23 23 22 22 22 22 22 22 21 21 21 21 21 21 21 21 21 21 21 21 21 21 21 21 21 21 20 20 19 19 18 18 17 17 17 17 16 16 15 15 15 14 14 14 13 14 14 14 14 14 14 14 14 15 15 15 15 15 15 15 15 15 15 15 15 16 16 16 17 17 17 17 18 18 18 18 19 19 19 19
22 22 22 23 23 23 23 23 23 23 23 22 22 22 22 22 21 21 21 21 22 22 22 22 22 22 22 22 21 21 21 21 20 20 19 19 18 18 18 17 17 17 16 16 16 15 15 14 14 14 14 14 14 14 14 15 15 15 15 15 15 15 15 15 15 15 15 15 15 16 16 16 17 17 18 18 18 18 19 19 19 19 19 20 20 20
21 22 23 23 24 24 23 23 23 23 23 23 23 23 22 22 22 21 21 21 22 22 23 23 23 23 22 22 22 21 21 21 20 20 19 19 18 18 18 17 17 17 17 16 16 15 15 15 15 15 15 15 15 15 15 15 16 16 16 15 15 15 15 15 15 15 16 16 16 17 17 17 18 18 18 19 19 19 20 20 20 20 20 21 21 21
22 22 23 24 24 24 23 23 24 24 24 23 23 23 22 22 22 21 21 21 22 22 22 23 23 23 22 22 22 21 21 20 20 20 19 19 19 18 18 18 17 17 17 16 16 15 15 15 15 15 16 16 16 16 16 16 16 16 16 15 15 15 15 16 16 16 16 17 17 18 18 18 19 19 19 20 20 20 21 21 21 21 22 22 22 23
22 23 24 24 24 24 24 24 24 24 24 23 23 23 22 22 22 21 21 21 22 22 22 22 22 22 22 22 22 21 21 21 20 20 19 19 19 18 18 18 17 17 16 16 16 16 16 16 16 16 16 17 17 17 17 17 16 16 16 15 16 16 16 16 17 17 17 18 18 19 19 19 20 20 20 21 21 22 22 22 23 23 23 23 24 24
23 24 24 24 24 24 24 24 24 24 24 23 23 23 22 22 22 22 22 22 22 22 22 22 22 22 22 22 21 21 21 20 20 20 19 19 19 19 18 18 17 17 17 16 16 16 17 17 17 17 18 18 18 17 17 17 16 16 16 16 16 16 16 17 18 18 18 19 19 19 20 20 20 21 22 22 23 23 24 24 24 24 24 24 24 24
24 25 25 24 24 24 24 24 24 23 23 23 23 22 22 22 22 22 22 22 22 22 22 22 22 22 22 21 21 21 20 20 20 20 20 19 19 19 18 18 18 17 17 17 17 17 18 18 18 18 18 18 18 17 17 17 17 17 17 17 17 17 17 18 18 19 19 19 20 20 20 21 21 22 23 23 24 24 25 25 25 25 25 24 24 24
25 25 25 25 25 25 24 24 23 23 23 23 23 22 22 22 22 22 22 22 22 22 22 22 22 21 21 21 21 21 20 20 20 20 20 19 19 19 19 18 18 18 18 18 18 18 18 18 18 18 18 18 18 17 17 17 17 17 17 17 17 18 18 19 19 19 19 20 20 21 21 22 23 23 24 24 24 25 25 25 25 24 24 23 22 22
26 26 26 25 25 24 24 23 23 23 23 23 23 23 22 22 22 22 22 22 22 22 22 22 21 21 21 21 21 20 20 20 20 20 20 20 19 19 19 19 19 19 19 19 19 19 19 19 19 18 18 18 17 17 17 17 17 17 18 18 18 18 19 19 19 20 20 21 21 22 22 23 24 24 24 24 24 24 24 24 23 23 22 21 21 20
27 27 26 26 25 24 23 23 23 23 23 23 23 23 23 23 23 23 23 23 23 22 22 22 21 21 21 21 21 20 20 20 20 20 20 20 20 20 20 20 20 20 20 20 20 20 19 19 19 18 18 18 18 18 18 18 18 18 18 18 19 19 19 20 20 21 21 22 22 23 23 23 24 24 24 23 23 23 22 22 22 21 20 20 19 19
28 27 27 26 25 24 23 23 23 23 23 23 23 23 23 23 23 23 23 23 23 23 22 22 22 21 21 21 21 21 21 21 21 21 21 21 21 21 21 21 21 21 21 21 20 20 19 19 18 18 18 18 18 18 18 18 18 19 19 19 20 20 20 21 21 21 22 22 23 23 23 23 23 23 22 22 21 21 21 21 20 20 19 19 19 19
29 28 27 26 25 24 24 24 24 24 24 24 24 24 24 24 24 24 24 23 23 23 22 22 22 22 22 22 22 22 21 21 22 22 22 22 22 22 22 22 22 21 21 21 20 19 19 18 18 18 18 18 18 18 19 19 19 19 20 20 20 21 22 22 22 22 22 22 23 22 22 22 22 21 20 20 20 20 20 20 20 19 19 19 19 19
30 29 28 27 26 25 25 25 25 25 25 25 25 24 24 24 24 24 24 23 23 23 23 23 23 22 22 22 22 22 22 22 22 23 23 23 23 23 23 23 22 21 21 20 20 19 19 19 18 18 18 19 19 19 19 19 20 20 20 21 21 22 22 23 23 23 22 22 22 22 21 21 20 20 19 19 19 19 19 19 19 19 19 19 19 19
31 30 28 27 26 25 25 26 26 26 25 25 25 25 25 24 24 24 24 24 23 23 23 23 23 23 22 22 22 22 22 23 23 23 24 24 24 24 23 22 22 21 20 20 20 19 19 19 19 19 19 19 19 19 19 20 20 21 21 22 22 23 23 23 23 23 22 22 22 21 21 20 20 19 19 19 19 19 19 19 20 20 20 20 20 20
Wind_Direction
282 282 282 282 281 281 280 279 278 278 278 278 278 278 278 277 277 276 274 273 271 269 267 265 263 262 263 265 267 268 267 266 266 267 269 269 268 267 267 269 273 276 278 280 281 280 278 276 274 272 272 274 279 284 289 290 290 287 284 280 276 272 269 266 263 261 258 256 255 253 252 250 248 248 248 249 251 252 253 253 253 252 252 251 251 251
281 282 282 282 281 280 279 278 277 277 278 278 277 276 276 276 275 275 273 272 270 269 268 266 263 261 262 265 269 271 272 271 270 269 268 268 267 267 268 270 273 275 276 277 278 277 275 273 272 271 271 274 279 285 289 291 289 286 283 279 275 272 268 265 262 259 256 253 251 249 247 246 245 246 247 249 250 251 251 251 251 250 250 250 251 252
280 281 281 281 280 279 278 278 277 277 277 277 277 276 275 275 274 273 272 271 270 269 268 267 264 262 262 265 269 272 275 275 273 270 268 267 267 268 271 273 275 275 275 275 275 274 272 271 271 270 271 274 280 287 291 290 288 284 280 277 273 270 266 263 260 257 253 250 248 246 244 243 243 244 246 248 249 250 249 249 249 249 249 250 251 253
279 280 280 280 279 278 278 278 278 277 277 277 276 276 275 274 273 271 270 268 268 267 267 268 267 266 265 266 268 271 273 273 272 270 268 268 269 271 274 276 276 275 274 273 273 272 271 271 271 271 271 275 281 288 292 290 286 280 276 273 270 267 264 261 258 254 251 248 245 243 242 241 242 243 245 247 248 249 248 248 248 249 249 251 252 253
278 279 279 279 278 277 277 278 278 278 277 276 276 275 275 273 272 270 269 267 266 267 268 270 271 270 269 268 268 268 268 268 268 268 268 270 272 274 276 276 276 274 272 272 271 271 270 271 271 271 273 278 285 291 293 289 282 276 272 269 266 263 260 258 255 252 248 245 243 241 240 240 241 243 245 247 248 248 248 248 248 249 250 251 252 253
277 277 277 277 277 277 277 277 277 277 277 276 276 275 275 273 271 270 268 267 267 266 267 269 270 269 267 266 265 265 265 266 267 269 271 273 275 276 277 277 275 273 271 270 270 270 270 270 271 273 276 283 289 292 292 286 278 271 267 265 262 259 256 253 251 248 245 242 240 239 239 240 241 244 246 247 248 248 248 248 248 249 250 251 252 253
276 276 276 275 276 276 276 276 276 276 276 276 276 276 275 274 272 270 269 268 265 262 260 260 262 263 263 263 264 265 266 268 271 274 276 277 279 280 280 279 276 272 269 268 267 267 268 269 271 274 279 285 289 290 287 281 273 267 264 261 257 254 250 248 246 243 241 239 238 238 239 240 242 244 246 247 248 248 248 248 248 249 250 251 252 252
275 274 274 274 274 275 275 275 275 275 276 276 276 276 275 274 273 271 270 268 264 260 255 254 255 257 259 261 264 266 268 271 274 276 278 280 281 282 282 280 276 270 266 264 264 265 267 269 272 276 280 284 286 285 282 276 269 264 261 257 253 249 246 244 242 240 238 237 237 237 239 241 243 245 247 248 248 248 248 248 248 248 249 250 251 252
274 273 273 273 273 274 274 274 275 275 275 276 276 275 275 274 273 271 269 267 264 261 258 256 255 256 257 259 262 265 268 270 273 275 277 279 280 281 281 279 274 268 263 262 262 264 267 270 273 277 280 282 282 280 276 271 266 262 258 254 249 245 242 240 238 237 236 236 237 238 240 243 245 246 248 248 249 248 248 248 248 248 249 250 251 252
272 273 273 272 273 273 274 275 275 275 275 275 275 275 275 274 273 272 269 267 265 264 262 261 260 259 260 260 261 264 266 269 271 273 275 276 277 277 277 276 272 266 262 262 263 266 269 271 274 277 278 279 277 275 271 266 262 258 254 250 245 241 238 236 236 236 236 237 239 241 243 245 246 247 248 249 249 248 248 248 248 248 249 250 251 252
271 272 272 273 273 273 274 276 277 277 276 276 276 276 276 276 275 274 273 271 270 268 267 266 265 265 265 265 265 265 266 268 270 271 273 274 274 274 274 272 269 265 263 263 265 267 270 273 275 276 276 275 273 270 266 262 258 254 250 246 241 236 233 233 234 235 236 238 240 243 245 246 247 248 249 249 249 248 248 248 248 248 248 249 250 251
271 271 272 273 273 274 274 275 277 277 278 278 278 279 279 278 277 277 275 274 273 271 270 269 268 268 268 268 268 268 268 269 270 271 272 272 272 272 271 269 266 264 263 264 266 269 271 273 274 274 273 271 268 264 259 256 252 249 245 241 236 232 230 230 232 234 237 239 242 244 246 247 248 248 248 248 248 248 247 247 247 247 248 249 250 251
270 271 272 272 273 274 275 275 276 277 278 279 279 279 278 277 276 275 274 273 271 269 268 267 267 267 267 268 269 269 269 270 270 270 271 271 271 270 269 268 266 264 264 265 267 269 270 271 272 271 269 266 261 256 251 247 245 243 240 236 233 231 230 230 232 235 237 240 243 245 246 247 247 247 247 247 247 247 246 246 246 247 248 249 250 251
270 271 272 272 273 274 274 275 276 277 277 277 278 277 276 276 274 273 272 270 269 268 267 266 265 265 266 267 267 268 269 269 270 270 270 270 269 269 268 266 265 265 265 266 268 269 269 269 268 266 263 259 253 248 243 240 238 237 236 234 233 233 234 235 237 239 240 242 243 245 246 246 246 246 246 246 246 246 246 246 247 247 248 249 250 252
271 271 272 272 273 274 274 275 275 276 276 276 275 275 274 274 273 272 271 270 269 268 267 266 266 266 266 266 267 268 268 269 269 269 269 269 268 268 267 266 265 266 266 267 267 268 267 266 263 260 256 251 245 241 237 235 234 234 235 236 237 239 241 242 243 243 243 244 244 245 245 246 246 246 246 246 246 246 246 246 247 248 248 250 251 253
271 272 272 273 273 274 274 274 275 275 275 275 274 274 273 273 273 272 271 270 269 268 267 266 266 266 267 267 268 268 268 268 268 268 267 267 267 266 265 265 265 265 266 266 266 265 263 260 256 251 245 240 237 235 234 234 234 237 239 241 243 244 246 246 246 245 245 245 245 245 246 246 246 246 246 246 246 246 246 247 247 248 249 250 252 253
271 272 273 273 273 274 274 274 274 274 274 274 274 273 273 273 272 271 270 269 269 268 267 266 266 266 267 268 268 268 269 268 267 266 265 265 265 265 265 264 264 265 265 265 264 261 258 253 247 241 235 232 232 233 234 236 238 241 244 245 246 246 245 245 245 244 245 245 245 245 246 246 246 246 247 246 246 247 247 247 248 249 250 251 252 254
272 272 273 273 274 274 274 273 273 273 273 273 273 273 272 271 271 270 269 269 268 267 267 267 267 267 267 267 268 268 268 267 266 265 264 264 264 264 264 263 263 263 263 263 261 257 252 245 238 232 229 228 230 233 235 237 239 241 243 244 243 242 242 241 241 242 242 243 244 245 245 246 246 246 246 247 247 247 247 248 248 249 250 251 253 254
272 273 273 274 274 274 273 273 272 272 272 272 271 271 270 270 270 269 269 268 268 267 266 266 266 266 266 266 267 267 266 265 264 263 263 262 263 263 263 262 262 262 261 259 257 252 246 239 232 228 226 227 229 232 234 236 237 239 240 240 240 239 238 238 238 239 239 240 241 243 243 244 245 245 246 246 246 247 247 248 249 250 250 252 253 254
273 273 274 274 274 273 273 272 272 271 271 271 270 270 269 269 269 268 268 268 267 266 265 265 265 265 265 265 265 264 263 262 261 261 261 261 261 262 262 261 260 259 258 256 252 247 240 233 227 224 224 226 229 232 234 235 237 238 238 238 236 236 235 235 236 236 237 238 239 240 242 243 244 244 245 245 246 247 247 248 249 250 251 252 253 254
273 273 273 273 273 273 272 272 271 271 270 270 269 269 268 268 268 267 267 266 265 264 264 263 263 263 264 263 262 260 259 258 258 259 259 259 259 260 260 259 257 256 254 251 246 241 234 228 223 222 225 228 232 234 234 235 236 237 236 235 234 233 233 233 234 235 235 236 237 239 240 241 242 243 244 245 246 247 248 248 249 250 251 252 253 255
272 273 272 272 272 272 272 272 271 270 270 269 268 268 267 267 266 265 265 264 263 262 261 261 261 262 261 259 257 255 255 255 255 256 257 256 256 256 256 255 253 251 247 243 238 233 227 222 221 224 228 232 234 235 234 234 234 234 232 232 231 232 232 233 233 234 234 235 237 238 239 241 242 243 244 245 246 247 248 249 250 251 252 253 254 255
272 272 271 271 270 270 271 271 270 270 269 267 267 266 266 265 265 263 263 262 260 260 259 259 259 258 257 254 253 252 252 253 253 254 253 252 252 252 251 250 247 243 237 232 227 224 221 221 223 228 231 233 234 233 232 231 230 230 229 229 230 230 231 232 233 233 234 235 237 238 240 241 243 244 245 246 247 248 249 250 251 252 253 254 255 256
271 271 270 270 270 269 269 269 269 268 267 266 266 265 265 264 263 262 261 260 259 258 258 257 256 254 252 251 250 250 250 251 250 250 249 247 246 244 243 240 235 229 224 221 220 220 221 224 227 230 231 231 231 229 228 227 227 227 227 228 229 230 231 232 232 233 235 236 238 240 241 243 244 245 246 248 249 250 251 252 252 253 254 255 256 257
270 270 270 269 269 268 268 267 267 267 266 266 265 265 264 263 262 261 260 259 258 256 255 253 251 250 249 248 247 247 248 247 246 244 241 238 235 233 231 227 221 217 216 218 220 222 225 227 228 229 228 227 226 225 225 224 224 225 226 227 228 229 230 232 233 235 236 238 240 242 243 245 246 247 248 249 250 251 252 253 254 255 255 256 257 258
270 269 269 268 268 267 267 266 266 266 265 265 264 263 262 261 260 259 258 257 256 254 252 250 248 247 246 245 244 243 242 240 238 235 230 225 221 219 218 214 212 213 215 218 222 224 226 226 226 225 224 223 223 222 222 222 223 224 225 226 228 229 231 233 235 236 238 240 242 243 244 246 247 248 249 250 251 251 252 253 254 255 256 257 258 259
269 268 268 267 267 266 266 266 265 265 264 264 263 262 261 259 258 257 256 255 253 251 248 246 244 242 241 239 237 235 232 229 225 221 216 212 210 210 210 209 210 211 213 216 219 221 222 221 221 220 220 220 220 220 220 221 222 223 225 226 228 230 232 234 236 238 239 241 242 244 245 246 247 248 249 250 251 252 253 254 255 256 258 259 260 261
268 267 267 266 266 266 265 265 264 264 263 262 261 260 259 257 255 254 252 251 248 245 243 240 237 234 232 229 226 223 219 215 211 208 206 205 207 208 208 208 207 206 205 207 211 213 214 215 215 216 217 218 218 218 219 220 221 222 224 226 228 230 232 234 236 238 239 241 242 243 244 245 246 247 249 250 252 253 255 256 258 259 260 261 262 263
267 267 266 266 265 265 264 264 263 262 261 260 259 257 256 254 251 248 246 244 241 238 235 232 228 223 219 217 214 211 207 205 204 204 204 206 208 208 206 204 202 200 198 201 206 210 211 212 212 213 214 216 216 217 218 219 221 222 224 226 228 230 232 234 236 237 239 240 241 243 244 245 247 248 250 252 253 255 257 259 261 262 263 264 265 265
267 266 266 265 264 264 263 262 261 259 258 257 255 253 250 248 244 241 238 235 232 229 226 221 217 212 209 207 205 204 203 203 204 205 206 208 209 207 203 201 200 199 200 203 207 210 212 212 213 213 214 215 216 217 218 220 221 223 224 226 228 230 232 234 236 238 239 241 242 244 245 247 248 250 252 254 256 258 260 261 263 264 265 266 267 267
267 266 265 264 264 263 261 260 258 256 254 252 249 246 242 239 235 232 229 226 223 219 215 210 207 204 203 202 203 204 206 207 208 207 206 208 207 205 202 201 201 202 204 206 207 209 211 212 213 214 214 215 216 218 219 220 222 223 225 227 229 231 233 235 237 239 241 243 245 247 249 250 252 254 256 258 259 261 262 263 264 265 266 267 267 267
266 266 265 264 262 261 259 257 254 251 248 245 241 237 233 229 225 222 219 216 213 209 205 203 202 201 202 203 205 206 207 209 209 207 205 206 205 204 202 202 203 204 207 208 208 209 209 211 213 214 215 215 216 218 220 222 224 225 227 229 231 234 236 238 241 243 245 247 249 251 253 255 257 258 260 261 262 263 264 265 266 266 266 267 267 267
266 265 264 262 260 258 255 252 249 245 241 237 233 228 224 219 216 213 210 207 204 201 200 200 201 202 204 205 205 205 205 207 207 207 206 206 205 205 204 204 205 206 208 209 209 209 209 210 212 214 215 216 217 220 222 224 227 229 231 233 236 238 241 244 246 248 250 252 254 256 257 259 260 262 263 264 264 265 266 267 267 267 267 267 267 267
265 264 262 260 257 254 250 247 243 239 234 229 225 220 215 212 208 206 203 202 200 199 199 200 202 203 204 204 203 203 204 207 208 209 209 208 207 206 206 206 207 208 209 209 209 210 210 212 213 215 216 219 221 223 226 229 232 235 238 240 242 244 247 249 251 253 254 256 257 258 260 261 262 263 264 265 265 266 267 267 268 268 268 268 268 268
264 262 260 256 252 248 244 241 236 232 227 222 217 213 209 207 204 202 201 201 200 200 201 201 201 201 200 200 201 203 207 209 211 212 212 210 208 207 207 207 207 208 208 209 210 210 211 214 216 217 220 223 226 229 232 235 238 242 245 247 248 250 252 253 254 255 256 258 259 259 260 261 262 263 264 265 265 266 267 268 268 269 269 269 269 269
262 260 256 252 247 242 238 234 230 225 220 215 211 208 205 204 202 202 202 202 203 203 203 202 202 202 202 202 203 206 209 210 211 212 212 210 209 208 207 207 207 208 208 210 211 213 214 217 219 222 225 227 231 235 238 241 243 246 249 251 252 253 254 255 255 256 256 257 258 259 260 261 261 263 264 265 265 266 267 268 268 269 269 270 270 271
258 255 251 246 241 236 232 228 223 218 213 210 207 205 204 203 203 203 204 204 205 205 205 205 205 206 208 209 209 209 209 210 210 210 210 210 209 208 207 207 209 209 210 211 214 216 219 221 224 227 230 232 235 238 242 244 247 249 251 253 254 254 254 254 255 255 255 256 257 258 259 260 262 263 264 265 266 267 268 268 269 269 270 271 271 272
253 249 245 240 235 231 226 222 218 213 209 207 205 204 204 204 205 206 207 207 207 207 207 207 208 209 211 212 211 211 210 209 208 208 209 209 208 208 208 209 210 212 213 215 218 221 224 226 229 232 234 237 239 242 245 248 250 251 252 253 254 253 253 253 253 253 254 255 256 258 260 261 262 264 265 266 267 268 268 269 269 270 271 271 272 272
248 244 239 234 230 225 221 217 213 209 207 205 205 205 205 206 207 208 209 209 209 209 209 209 209 210 211 211 211 210 208 207 208 208 208 208 209 209 210 211 213 215 217 219 222 225 228 231 233 235 237 240 242 245 248 250 252 252 253 253 253 253 252 252 252 253 254 256 257 259 261 262 264 265 266 267 268 268 269 269 270 271 271 272 272 272
242 238 233 229 225 221 217 213 209 207 205 205 205 206 206 207 208 209 211 211 211 211 210 210 210 210 210 210 209 208 207 206 207 208 209 209 210 212 213 214 217 219 222 224 226 229 232 234 236 239 241 243 245 248 250 251 252 252 253 253 253 253 253 253 254 255 256 258 259 261 262 264 265 266 267 268 268 269 269 270 270 271 271 271 272 272
237 232 228 224 221 217 213 210 207 205 205 205 206 207 207 207 208 210 211 212 212 211 211 210 210 209 209 208 207 206 206 207 208 209 210 212 213 215 217 218 221 223 225 227 230 232 235 237 239 242 244 246 247 249 250 251 251 251 251 251 252 253 254 255 256 257 258 259 261 262 264 265 266 267 268 269 269 270 270 270 271 271 271 271 272 272
231 227 223 220 217 213 210 207 206 205 205 206 207 207 208 208 209 209 210 211 211 210 210 209 208 207 207 207 207 207 207 208 210 211 213 215 217 219 220 222 224 226 228 230 232 235 238 241 243 244 246 247 248 248 249 249 249 250 250 251 252 253 255 256 258 259 259 261 262 263 264 265 266 267 268 269 270 270 271 271 272 272 272 272 271 272
226 222 219 216 213 210 208 207 206 206 206 206 207 208 209 209 209 209 209 209 209 208 208 207 207 207 206 207 207 208 209 211 213 215 217 219 220 222 223 224 226 228 230 233 235 238 241 244 245 246 247 248 247 247 247 247 248 249 250 251 253 254 256 257 258 259 260 261 262 263 264 265 266 267 268 269 271 272 272 273 273 273 272 272 272 272
221 217 215 212 210 208 207 207 207 207 207 208 208 209 210 209 209 209 208 208 207 207 206 206 206 207 207 208 209 211 212 214 216 218 219 221 222 223 225 226 228 230 233 236 238 241 244 246 246 247 247 247 246 246 246 246 248 250 251 253 254 255 256 257 258 259 260 261 262 263 264 265 266 267 269 270 271 272 273 273 273 273 273 273 272 272
217 214 212 210 209 208 208 208 208 208 209 209 210 210 210 210 209 209 208 207 206 206 206 206 207 207 208 210 212 213 215 217 219 220 222 223 224 225 226 228 230 233 236 239 242 244 245 246 246 246 246 245 245 245 246 247 249 251 253 254 255 256 256 257 258 259 260 261 262 264 265 266 267 268 269 270 271 272 273 273 273 273 273 273 273 272
214 211 210 209 209 209 209 210 211 211 211 211 211 211 211 210 209 208 207 206 206 205 206 206 207 208 210 213 214 216 218 220 222 223 224 225 226 228 230 232 234 237 240 242 245 246 246 246 246 245 245 244 245 246 247 249 251 253 254 255 256 256 257 258 258 259 261 262 264 265 266 267 268 269 270 270 271 271 272 272 272 273 273 273 273 272
211 210 210 210 211 211 212 213 213 213 213 213 212 212 211 210 209 208 207 206 205 205 206 207 208 210 212 215 217 219 221 223 224 225 226 228 229 231 233 236 239 241 243 245 246 246 246 245 244 244 244 244 245 247 249 252 254 255 256 257 258 258 259 260 261 262 263 265 266 267 268 269 269 269 270 270 270 270 270 271 271 271 272 273 273 273
211 211 211 212 213 215 216 217 217 216 215 214 213 212 210 209 208 207 206 206 206 206 207 208 211 213 216 218 220 222 224 225 227 228 229 231 233 235 238 240 242 244 245 246 245 245 244 243 242 243 243 245 247 249 252 254 256 257 258 259 260 261 262 263 264 266 267 268 269 269 270 270 270 270 270 270 269 269 270 270 270 271 272 272 273 273
211 212 213 214 215 217 218 219 218 217 215 213 212 210 209 208 207 207 206 206 207 208 210 212 215 217 220 222 224 226 227 229 230 232 233 235 237 239 242 243 244 245 245 244 243 242 241 241 241 243 245 247 249 252 255 257 259 260 261 262 264 265 266 267 268 269 270 271 271 271 271 271 271 270 270 269 269 269 269 270 271 271 272 272 273 273
211 213 214 215 217 218 219 219 218 216 213 212 210 209 208 208 207 207 207 208 210 212 214 217 219 221 223 225 227 229 231 232 234 236 238 240 242 243 244 245 245 244 243 241 240 239 239 240 241 244 246 250 252 255 257 259 261 263 264 265 267 268 269 271 272 272 273 273 273 273 272 272 271 271 270 269 269 269 269 270 271 272 273 273 273 273
212 213 215 216 217 218 218 218 216 213 211 209 208 207 207 207 208 209 210 212 214 217 219 221 223 225 226 228 230 232 234 236 238 240 242 243 244 245 245 244 243 241 240 239 238 238 239 240 243 245 248 252 255 257 259 262 264 266 267 268 270 271 272 273 274 274 274 274 274 274 273 272 271 270 269 269 268 268 269 270 271 272 273 273 273 273
Height
3069 3069 3069 3069 3069 3068 3068 3068 3068 3067 3066 3066 3066 3066 3065 3065 3064 3064 3064 3064 3064 3064 3064 3064 3064 3064 3065 3065 3065 3065 3065 3065 3065 3066 3066 3066 3066 3066 3065 3065 3065 3065 3065 3065 3065 3065 3065 3065 3065 3066 3066 3065 3065 3065 3064 3064 3064 3063 3063 3063 3063 3063 3062 3063 3063 3063 3064 3064 3065 3066 3066 3066 3067 3067 3067 3068 3068 3068 3069 3069 3070 3070 3070 3071 3071 3071
3066 3066 3066 3067 3066 3066 3065 3065 3065 3065 3064 3064 3063 3063 3063 3063 3062 3062 3062 3062 3062 3062 3062 3062 3062 3063 3063 3063 3063 3063 3063 3063 3064 3064 3064 3064 3064 3063 3063 3063 3063 3063 3063 3063 3063 3063 3063 3063 3063 3064 3064 3064 3063 3063 3063 3062 3062 3062 3061 3061 3061 3061 3061 3061 3062 3062 3063 3063 3064 3064 3065 3065 3065 3065 3066 3066 3067 3067 3068 3068 3068 3069 3069 3069 3070 3070
3064 3063 3063 3063 3063 3063 3062 3062 3062 3062 3062 3062 3061 3061 3061 3060 3060 3060 3060 3060 3060 3060 3060 3060 3060 3060 3061 3061 3061 3062 3062 3062 3062 3062 3062 3062 3062 3061 3061 3061 3061 3061 3062 3062 3061 3061 3062 3062 3062 3062 3062 3062 3062 3061 3061 3061 3060 3060 3060 3059 3059 3059 3059 3060 3060 3061 3061 3062 3062 3063 3063 3063 3064 3064 3065 3065 3066 3066 3067 3067 3068 3068 3068 3068 3069 3069
3061 3061 3061 3061 3060 3060 3059 3059 3059 3059 3059 3059 3059 3058 3058 3058 3058 3058 3058 3058 3058 3058 3058 3058 3058 3058 3058 3059 3059 3059 3060 3060 3060 3060 3060 3060 3059 3059 3059 3059 3059 3059 3059 3059 3059 3059 3060 3060 3060 3060 3060 3060 3060 3060 3059 3059 3059 3058 3058 3058 3058 3058 3058 3058 3059 3059 3060 3060 3061 3061 3062 3062 3063 3063 3063 3064 3065 3065 3066 3066 3067 3067 3067 3067 3068 3068
3058 3058 3058 3058 3058 3057 3057 3057 3057 3057 3057 3057 3056 3056 3056 3056 3056 3056 3056 3056 3056 3056 3056 3056 3056 3056 3057 3057 3057 3058 3058 3058 3058 3058 3058 3058 3057 3057 3057 3057 3057 3057 3057 3057 3057 3058 3058 3058 3058 3058 3058 3058 3058 3058 3058 3058 3057 3057 3057 3057 3057 3057 3057 3057 3058 3058 3058 3059 3059 3060 3061 3061 3062 3062 3063 3063 3063 3064 3065 3065 3065 3066 3066 3066 3067 3067
3055 3056 3056 3055 3055 3055 3055 3055 3054 3054 3054 3054 3054 3054 3054 3054 3053 3053 3053 3054 3054 3054 3054 3054 3054 3054 3055 3055 3055 3055 3056 3056 3055 3055 3055 3055 3055 3055 3055 3055 3055 3055 3055 3055 3055 3055 3056 3056 3056 3056 3056 3056 3056 3056 3056 3056 3055 3055 3055 3055 3055 3055 3055 3056 3056 3057 3057 3058 3058 3059 3059 3060 3060 3061 3061 3062 3063 3063 3063 3064 3064 3064 3065 3065 3066 3066
3053 3053 3053 3053 3053 3052 3052 3052 3052 3052 3052 3052 3051 3052 3052 3051 3051 3051 3051 3051 3052 3052 3053 3053 3053 3053 3053 3053 3053 3053 3053 3053 3053 3053 3053 3053 3053 3053 3052 3052 3053 3053 3053 3053 3053 3053 3053 3053 3054 3054 3054 3054 3054 3054 3054 3053 3053 3053 3053 3053 3053 3054 3054 3054 3055 3055 3056 3057 3057 3058 3058 3059 3059 3060 3060 3061 3061 3062 3062 3063 3063 3063 3064 3064 3064 3065
3050 3050 3051 3050 3050 3050 3050 3050 3050 3050 3049 3049 3049 3049 3049 3049 3049 3049 3049 3049 3049 3050 3050 3051 3051 3051 3051 3051 3051 3051 3051 3051 3051 3051 3051 3051 3050 3050 3050 3050 3050 3051 3051 3051 3051 3051 3051 3051 3051 3052 3052 3052 3052 3052 3052 3052 3051 3052 3052 3052 3052 3052 3053 3053 3053 3054 3055 3055 3056 3057 3057 3058 3058 3059 3059 3060 3060 3061 3061 3062 3062 3063 3063 3063 3063 3064
3048 3048 3048 3048 3048 3048 3047 3047 3047 3048 3047 3047 3046 3046 3046 3047 3047 3047 3047 3047 3047 3047 3048 3048 3048 3048 3048 3048 3048 3048 3048 3048 3048 3048 3048 3048 3048 3048 3048 3048 3049 3049 3049 3049 3049 3049 3049 3049 3049 3049 3049 3049 3049 3049 3049 3049 3049 3050 3050 3050 3050 3051 3051 3052 3052 3053 3054 3054 3055 3055 3056 3057 3057 3058 3058 3058 3059 3059 3060 3060 3061 3061 3062 3062 3062 3063
3045 3045 3045 3045 3045 3045 3045 3044 3044 3045 3045 3045 3044 3044 3044 3044 3044 3044 3044 3044 3045 3045 3045 3045 3045 3046 3046 3046 3046 3046 3046 3046 3046 3046 3046 3046 3046 3046 3046 3046 3047 3047 3048 3048 3047 3047 3047 3047 3047 3047 3047 3047 3047 3047 3047 3048 3048 3048 3048 3048 3049 3049 3050 3050 3051 3052 3053 3053 3053 3054 3055 3055 3056 3057 3057 3058 3058 3058 3059 3059 3060 3060 3061 3061 3061 3062
3042 3043 3043 3043 3043 3043 3043 3042 3042 3042 3042 3042 3042 3042 3042 3042 3042 3042 3041 3042 3042 3043 3043 3043 3043 3043 3043 3043 3043 3043 3043 3043 3043 3043 3043 3044 3044 3044 3044 3044 3045 3045 3045 3045 3045 3045 3045 3045 3045 3045 3045 3045 3045 3045 3045 3046 3046 3046 3047 3047 3047 3048 3048 3049 3050 3051 3051 3052 3053 3053 3054 3054 3055 3055 3056 3056 3057 3057 3058 3058 3059 3059 3059 3060 3060 3061
3040 3040 3040 3040 3040 3040 3040 3040 3040 3039 3039 3039 3039 3039 3039 3039 3039 3039 3039 3039 3039 3040 3040 3040 3040 3040 3041 3040 3040 3040 3041 3041 3041 3041 3041 3041 3041 3041 3042 3042 3043 3043 3043 3043 3043 3043 3043 3043 3043 3043 3043 3043 3043 3043 3043 3044 3044 3045 3045 3046 3046 3046 3047 3048 3048 3049 3050 3051 3051 3052 3053 3053 3054 3054 3055 3055 3056 3056 3057 3057 3058 3058 3058 3059 3059 3059
3037 3037 3037 3037 3037 3038 3038 3038 3037 3037 3037 3037 3037 3037 3036 3037 3037 3037 3037 3037 3037 3037 3038 3038 3038 3038 3038 3038 3038 3038 3038 3038 3038 3039 3039 3039 3039 3039 3039 3039 3040 3040 3041 3041 3041 3041 3041 3041 3041 3041 3041 3041 3041 3042 3042 3043 3043 3043 3044 3044 3045 3045 3046 3046 3047 3048 3048 3049 3050 3051 3052 3052 3053 3053 3053 3054 3054 3055 3056 3056 3056 3057 3057 3058 3058 3058
3034 3034 3035 3035 3035 3035 3035 3035 3035 3034 3034 3034 3034 3034 3034 3034 3034 3034 3034 3034 3034 3035 3035 3035 3035 3035 3035 3035 3035 3035 3035 3036 3036 3036 3036 3036 3036 3037 3037 3037 3038 3038 3038 3038 3039 3039 3039 3039 3039 3039 3039 3039 3040 3040 3040 3041 3042 3042 3043 3043 3043 3044 3044 3045 3046 3047 3047 3048 3049 3050 3050 3051 3051 3052 3053 3053 3053 3054 3054 3055 3055 3056 3056 3057 3057 3057
3031 3031 3032 3032 3032 3032 3033 3033 3032 3032 3032 3032 3032 3031 3031 3031 3031 3032 3032 3031 3032 3032 3032 3032 3032 3032 3032 3033 3033 3033 3033 3033 3034 3034 3034 3034 3034 3034 3034 3035 3035 3035 3036 3036 3037 3037 3037 3037 3037 3037 3038 3038 3038 3039 3039 3040 3040 3041 3041 3041 3042 3042 3043 3044 3044 3045 3046 3047 3048 3048 3049 3050 3050 3051 3051 3052 3052 3053 3053 3054 3054 3054 3055 3055 3056 3056
3028 3028 3028 3028 3029 3029 3029 3029 3029 3029 3029 3029 3029 3028 3028 3028 3028 3028 3029 3028 3028 3029 3029 3029 3029 3029 3029 3030 3030 3030 3031 3031 3031 3032 3032 3032 3032 3032 3032 3032 3033 3033 3034 3034 3034 3034 3035 3035 3035 3035 3036 3036 3037 3038 3038 3038 3039 3039 3040 3040 3041 3041 3042 3043 3043 3044 3045 3046 3047 3047 3048 3048 3049 3049 3050 3051 3051 3052 3052 3053 3053 3053 3054 3054 3054 3055
3025 3025 3025 3025 3025 3026 3026 3026 3026 3026 3026 3026 3026 3025 3025 3026 3026 3026 3026 3026 3026 3026 3026 3026 3026 3026 3026 3027 3028 3028 3028 3028 3028 3029 3029 3029 3029 3029 3030 3030 3031 3031 3032 3032 3032 3033 3033 3033 3033 3034 3034 3035 3036 3036 3037 3037 3037 3038 3038 3039 3040 3040 3041 3042 3043 3043 3044 3045 3045 3046 3047 3047 3048 3048 3049 3049 3050 3050 3051 3051 3052 3052 3053 3053 3053 3054
3022 3022 3023 3022 3022 3023 3023 3023 3023 3023 3023 3023 3023 3023 3023 3023 3023 3023 3022 3023 3023 3023 3023 3023 3023 3023 3024 3024 3025 3026 3026 3026 3026 3026 3026 3027 3027 3027 3028 3028 3028 3029 3029 3030 3030 3030 3031 3031 3032 3032 3033 3033 3034 3035 3035 3035 3036 3037 3038 3038 3039 3039 3040 3041 3041 3042 3043 3043 3044 3045 3045 3046 3047 3047 3048 3048 3049 3049 3050 3050 3051 3051 3051 3052 3052 3053
3019 3019 3019 3019 3019 3019 3019 3019 3020 3020 3020 3020 3020 3019 3019 3019 3019 3019 3019 3019 3020 3020 3020 3020 3020 3021 3021 3022 3023 3023 3023 3023 3023 3023 3023 3024 3024 3025 3025 3026 3026 3027 3028 3028 3028 3028 3029 3029 3030 3031 3031 3032 3033 3033 3034 3034 3035 3036 3037 3037 3038 3038 3039 3039 3040 3041 3041 3042 3043 3043 3044 3045 3045 3046 3047 3047 3048 3048 3048 3049 3049 3050 3050 3051 3051 3051
3016 3016 3016 3016 3016 3016 3016 3016 3017 3017 3017 3017 3017 3016 3016 3016 3016 3016 3016 3017 3017 3017 3018 3018 3018 3018 3018 3019 3020 3021 3020 3020 3020 3020 3021 3022 3022 3023 3023 3023 3024 3025 3025 3026 3026 3026 3027 3028 3028 3029 3030 3031 3031 3032 3033 3033 3034 3035 3035 3036 3037 3037 3038 3038 3039 3039 3040 3041 3042 3042 3043 3043 3044 3045 3045 3046 3046 3047 3047 3048 3048 3048 3049 3049 3050 3050
3013 3013 3013 3013 3013 3013 3013 3013 3014 3014 3014 3014 3013 3013 3013 3013 3013 3013 3013 3014 3014 3014 3015 3015 3015 3015 3016 3017 3018 3018 3018 3017 3018 3018 3019 3020 3020 3020 3021 3022 3022 3023 3023 3023 3024 3024 3025 3026 3027 3028 3028 3029 3030 3031 3031 3032 3033 3033 3034 3035 3035 3036 3036 3037 3038 3038 3039 3040 3040 3041 3042 3043 3043 3043 3044 3045 3045 3046 3046 3046 3047 3047 3048 3048 3048 3049
3010 3010 3010 3010 3010 3010 3009 3010 3010 3011 3011 3011 3010 3010 3010 3010 3010 3010 3011 3011 3011 3011 3012 3012 3012 3013 3014 3015 3015 3015 3015 3015 3015 3016 3017 3018 3018 3018 3019 3019 3020 3020 3021 3021 3022 3023 3023 3024 3025 3026 3027 3028 3028 3029 3030 3031 3032 3032 3033 3033 3034 3035 3035 3036 3037 3037 3038 3038 3039 3040 3041 3041 3042 3042 3043 3043 3044 3044 3045 3045 3045 3046 3046 3047 3047 3047
3007 3007 3007 3007 3007 3007 3007 3007 3007 3008 3008 3008 3007 3007 3007 3007 3007 3007 3008 3008 3008 3008 3008 3009 3010 3010 3011 3012 3012 3012 3012 3013 3013 3014 3015 3015 3016 3017 3017 3018 3018 3018 3019 3020 3020 3021 3022 3023 3024 3025 3026 3026 3027 3028 3028 3029 3030 3031 3032 3032 3033 3033 3034 3035 3035 3036 3037 3037 3038 3039 3039 3040 3041 3041 3042 3042 3043 3043 3043 3043 3044 3044 3045 3045 3045 3046
3004 3004 3004 3004 3004 3004 3004 3004 3004 3004 3004 3004 3004 3004 3004 3004 3004 3004 3004 3005 3005 3006 3006 3007 3007 3008 3008 3009 3009 3009 3010 3011 3011 3012 3013 3013 3014 3015 3015 3016 3016 3017 3018 3018 3019 3020 3021 3022 3023 3023 3024 3025 3026 3027 3027 3028 3029 3029 3030 3031 3032 3032 3033 3033 3034 3035 3035 3036 3037 3038 3038 3038 3039 3040 3040 3041 3041 3041 3042 3042 3043 3043 3043 3044 3044 3044
3001 3001 3001 3001 3001 3001 3001 3001 3001 3001 3001 3001 3001 3001 3001 3001 3001 3001 3002 3002 3003 3003 3003 3004 3004 3005 3006 3006 3007 3008 3008 3009 3009 3010 3011 3012 3013 3013 3013 3014 3015 3016 3017 3018 3018 3019 3020 3021 3022 3022 3023 3024 3025 3025 3026 3027 3028 3028 3029 3030 3030 3031 3032 3032 3033 3033 3034 3035 3035 3036 3037 3037 3038 3038 3039 3039 3040 3040 3040 3041 3041 3042 3042 3042 3043 3043
2998 2998 2998 2998 2998 2998 2998 2998 2998 2998 2998 2998 2998 2998 2998 2998 2998 2998 2999 2999 3000 3000 3001 3002 3002 3003 3003 3004 3005 3006 3007 3007 3008 3008 3009 3010 3011 3012 3012 3013 3014 3015 3016 3017 3018 3018 3019 3020 3021 3021 3022 3023 3023 3024 3025 3026 3026 3027 3028 3028 3029 3030 3030 3031 3032 3032 3033 3033 3034 3035 3035 3036 3036 3037 3037 3038 3038 3038 3039 3039 3040 3040 3040 3041 3041 3042
2995 2995 2995 2995 2995 2995 2995 2995 2995 2994 2994 2994 2995 2995 2995 2995 2995 2996 2996 2997 2998 2998 2999 2999 3000 3001 3002 3003 3003 3004 3005 3006 3006 3007 3008 3009 3010 3010 3011 3012 3013 3014 3015 3016 3017 3018 3018 3019 3020 3021 3021 3022 3023 3023 3024 3025 3025 3026 3027 3027 3028 3028 3029 3030 3030 3031 3032 3032 3033 3033 3034 3034 3035 3035 3036 3036 3037 3037 3038 3038 3038 3039 3039 3039 3040 3040
2993 2992 2992 2992 2992 2992 2992 2992 2992 2992 2992 2992 2992 2992 2992 2993 2993 2994 2994 2995 2995 2996 2997 2998 2998 2999 3000 3001 3002 3003 3003 3004 3005 3006 3007 3008 3009 3009 3010 3011 3012 3013 3014 3015 3016 3017 3018 3018 3019 3019 3020 3021 3021 3022 3023 3023 3024 3025 3025 3026 3027 3027 3028 3028 3029 3030 3030 3031 3032 3032 3033 3033 3034 3034 3035 3035 3035 3036 3036 3037 3037 3037 3038 3038 3038 3039
2989 2989 2989 2989 2989 2989 2989 2989 2989 2989 2989 2989 2989 2990 2990 2990 2991 2992 2992 2993 2993 2994 2995 2996 2997 2998 2998 2999 3000 3001 3002 3003 3004 3005 3006 3007 3008 3008 3009 3010 3011 3012 3013 3013 3014 3015 3016 3017 3018 3018 3019 3019 3020 3021 3022 3022 3023 3023 3024 3025 3025 3026 3027 3027 3028 3029 3029 3030 3030 3031 3031 3032 3032 3033 3033 3034 3034 3034 3035 3035 3035 3036 3036 3037 3037 3037
2987 2986 2986 2986 2986 2986 2986 2986 2986 2987 2987 2987 2987 2988 2988 2989 2989 2990 2990 2991 2992 2993 2993 2994 2995 2996 2997 2998 2999 3000 3001 3002 3003 3004 3005 3006 3007 3008 3008 3009 3010 3011 3011 3012 3013 3014 3015 3016 3017 3017 3018 3018 3019 3020 3020 3021 3022 3023 3023 3024 3024 3025 3026 3026 3027 3028 3028 3028 3029 3030 3030 3031 3031 3032 3032 3032 3033 3033 3033 3034 3034 3034 3035 3035 3035 3036
2984 2983 2983 2983 2983 2983 2984 2984 2984 2984 2985 2985 2985 2986 2986 2987 2988 2988 2989 2990 2990 2992 2993 2993 2994 2995 2996 2997 2998 2999 3000 3002 3003 3003 3004 3005 3006 3007 3007 3008 3009 3010 3010 3011 3012 3013 3014 3015 3015 3016 3017 3018 3018 3019 3019 3020 3021 3021 3022 3023 3023 3024 3024 3025 3026 3026 3027 3028 3028 3028 3029 3029 3030 3030 3031 3031 3031 3032 3032 3032 3033 3033 3033 3033 3034 3034
2981 2981 2981 2981 2981 2981 2981 2982 2982 2982 2983 2983 2983 2984 2985 2985 2986 2987 2988 2989 2990 2991 2992 2993 2993 2995 2996 2997 2998 2999 3000 3001 3002 3002 3003 3004 3005 3005 3006 3007 3008 3008 3009 3010 3011 3012 3013 3013 3014 3015 3016 3017 3017 3018 3018 3019 3020 3020 3021 3022 3022 3023 3023 3024 3024 3025 3026 3026 3027 3027 3028 3028 3028 3029 3029 3029 3030 3030 3030 3031 3031 3031 3032 3032 3033 3033
2978 2978 2978 2979 2979 2979 2979 2980 2980 2980 2981 2981 2982 2983 2983 2984 2985 2986 2987 2988 2989 2990 2991 2992 2993 2994 2995 2996 2997 2998 2999 3000 3000 3001 3002 3003 3004 3004 3005 3006 3007 3008 3008 3009 3010 3011 3012 3013 3013 3014 3015 3015 3016 3017 3017 3018 3018 3019 3020 3020 3021 3022 3022 3023 3023 3024 3024 3025 3025 3026 3026 3026 3027 3027 3028 3028 3028 3028 3029 3029 3029 3030 3030 3030 3031 3031
2976 2976 2976 2976 2977 2977 2977 2978 2978 2978 2979 2980 2980 2981 2982 2983 2984 2985 2986 2987 2988 2989 2990 2991 2992 2993 2994 2995 2996 2997 2998 2999 3000 3000 3001 3002 3003 3004 3004 3005 3006 3007 3008 3008 3009 3010 3011 3012 3012 3013 3013 3014 3015 3016 3016 3017 3018 3018 3019 3019 3020 3020 3021 3022 3022 3023 3023 3023 3024 3024 3024 3025 3025 3026 3026 3026 3027 3027 3027 3028 3028 3028 3028 3029 3029 3029
2973 2973 2974 2974 2975 2975 2975 2976 2976 2977 2978 2978 2979 2980 2981 2982 2983 2984 2985 2986 2987 2988 2989 2990 2991 2992 2993 2994 2995 2996 2997 2998 2999 3000 3000 3001 3002 3003 3003 3004 3005 3006 3007 3008 3008 3009 3010 3011 3011 3012 3013 3013 3014 3015 3015 3016 3017 3017 3018 3018 3019 3019 3020 3020 3021 3021 3021 3022 3022 3023 3023 3023 3024 3024 3024 3025 3025 3025 3026 3026 3026 3027 3027 3027 3028 3028
2971 2971 2972 2972 2973 2973 2973 2974 2975 2976 2976 2977 2978 2979 2980 2981 2982 2983 2984 2985 2986 2987 2988 2989 2990 2991 2992 2993 2994 2995 2996 2997 2998 2998 2999 3000 3001 3002 3003 3003 3004 3005 3006 3007 3008 3008 3009 3010 3010 3011 3012 3013 3013 3013 3014 3015 3015 3016 3016 3017 3017 3018 3018 3019 3019 3020 3020 3020 3021 3021 3022 3022 3022 3023 3023 3023 3024 3024 3024 3024 3025 3025 3025 3026 3026 3026
2968 2969 2970 2970 2971 2971 2972 2973 2973 2974 2975 2976 2977 2978 2979 2980 2981 2982 2983 2984 2985 2986 2987 2988 2989 2990 2991 2992 2993 2994 2994 2995 2996 2997 2998 2999 3000 3001 3002 3002 3003 3004 3005 3006 3006 3007 3008 3009 3009 3010 3011 3011 3012 3013 3013 3013 3014 3015 3015 3016 3016 3017 3017 3018 3018 3018 3019 3019 3019 3020 3020 3021 3021 3021 3022 3022 3022 3023 3023 3023 3023 3023 3024 3024 3024 3024
2967 2967 2968 2968 2969 2969 2970 2971 2972 2973 2974 2975 2976 2977 2978 2979 2980 2981 2982 2983 2984 2985 2986 2987 2988 2989 2990 2991 2991 2992 2993 2994 2995 2996 2997 2998 2999 3000 3001 3001 3002 3003 3004 3004 3005 3006 3007 3008 3008 3009 3009 3010 3011 3011 3012 3012 3013 3013 3014 3014 3015 3015 3016 3016 3017 3017 3017 3018 3018 3018 3019 3019 3019 3020 3020 3020 3021 3021 3021 3021 3022 3022 3022 3022 3023 3023
2964 2965 2966 2967 2967 2968 2969 2970 2971 2972 2973 2974 2975 2976 2977 2978 2979 2980 2981 2982 2983 2984 2985 2986 2987 2988 2988 2989 2990 2991 2992 2993 2994 2995 2996 2997 2998 2998 2999 3000 3001 3002 3003 3003 3004 3005 3006 3006 3007 3008 3008 3009 3009 3010 3010 3011 3011 3012 3013 3013 3013 3014 3014 3015 3015 3015 3016 3016 3017 3017 3017 3018 3018 3018 3018 3018 3019 3019 3019 3019 3020 3020 3020 3020 3021 3021
2963 2963 2964 2965 2966 2966 2967 2968 2969 2971 2972 2973 2973 2974 2975 2976 2977 2978 2979 2981 2982 2983 2983 2984 2985 2986 2987 2988 2989 2990 2991 2992 2993 2994 2995 2996 2997 2998 2998 2999 3000 3001 3002 3002 3003 3003 3004 3005 3006 3006 3007 3008 3008 3008 3009 3009 3010 3010 3011 3012 3012 3012 3013 3013 3013 3014 3014 3015 3015 3015 3015 3016 3016 3016 3017 3017 3017 3017 3018 3018 3018 3018 3018 3018 3019 3019
2961 2962 2962 2963 2964 2965 2966 2967 2968 2969 2970 2971 2972 2973 2974 2975 2976 2977 2978 2979 2980 2981 2982 2983 2984 2985 2986 2987 2988 2989 2990 2991 2992 2993 2994 2994 2995 2996 2997 2998 2999 3000 3000 3001 3002 3002 3003 3003 3004 3005 3005 3006 3007 3007 3008 3008 3008 3009 3010 3010 3010 3011 3011 3012 3012 3012 3013 3013 3013 3013 3014 3014 3014 3014 3015 3015 3015 3015 3015 3016 3016 3016 3016 3017 3017 3017
2959 2960 2961 2962 2963 2964 2965 2966 2967 2968 2968 2970 2971 2972 2973 2974 2975 2976 2977 2978 2979 2980 2981 2982 2983 2984 2985 2986 2987 2988 2989 2990 2991 2992 2993 2993 2994 2995 2996 2997 2998 2998 2999 3000 3000 3001 3002 3002 3003 3003 3004 3004 3005 3006 3006 3007 3007 3008 3008 3008 3009 3009 3010 3010 3010 3011 3011 3011 3012 3012 3012 3012 3013 3013 3013 3013 3013 3013 3013 3013 3014 3014 3014 3014 3014 3015
2957 2958 2959 2960 2962 2963 2964 2965 2965 2966 2968 2968 2969 2971 2972 2973 2973 2974 2975 2977 2978 2979 2980 2981 2982 2983 2984 2985 2986 2987 2988 2989 2990 2991 2991 2992 2993 2994 2995 2995 2996 2997 2998 2998 2999 2999 3000 3001 3001 3002 3002 3003 3003 3004 3005 3005 3006 3006 3007 3007 3008 3008 3008 3008 3009 3009 3009 3010 3010 3010 3010 3011 3011 3011 3011 3011 3011 3011 3011 3011 3011 3012 3012 3012 3012 3012
2955 2957 2958 2959 2960 2961 2962 2963 2964 2965 2966 2967 2968 2969 2970 2972 2973 2973 2974 2975 2976 2977 2978 2980 2981 2982 2983 2984 2985 2986 2987 2988 2988 2989 2990 2991 2992 2993 2993 2994 2995 2995 2996 2997 2998 2998 2998 2999 3000 3000 3001 3001 3002 3003 3003 3004 3004 3005 3005 3006 3006 3006 3007 3007 3007 3008 3008 3008 3008 3008 3008 3009 3009 3009 3009 3009 3009 3009 3009 3009 3009 3009 3009 3010 3010 3010
2954 2955 2957 2958 2959 2960 2961 2962 2963 2964 2965 2966 2967 2968 2969 2970 2971 2972 2973 2974 2975 2976 2977 2978 2979 2981 2982 2983 2984 2985 2986 2987 2987 2988 2989 2990 2990 2991 2992 2993 2993 2994 2995 2995 2996 2997 2997 2998 2998 2998 2999 3000 3000 3001 3002 3002 3003 3003 3003 3004 3004 3005 3005 3005 3006 3006 3006 3006 3007 3007 3007 3007 3007 3007 3007 3007 3007 3007 3007 3007 3007 3007 3007 3007 3008 3008
2953 2954 2955 2956 2957 2958 2959 2960 2962 2963 2964 2965 2966 2967 2968 2969 2970 2971 2972 2973 2974 2975 2976 2977 2978 2979 2981 2982 2982 2983 2984 2985 2986 2987 2988 2988 2989 2989 2990 2991 2992 2992 2993 2993 2994 2995 2995 2996 2996 2997 2997 2998 2998 2999 3000 3000 3001 3001 3002 3002 3002 3003 3003 3003 3004 3004 3004 3004 3005 3005 3005 3005 3005 3005 3005 3005 3005 3005 3005 3004 3004 3005 3005 3005 3005 3006
2951 2953 2953 2955 2956 2957 2958 2959 2960 2961 2962 2963 2964 2966 2967 2968 2969 2970 2971 2972 2973 2974 2975 2976 2977 2978 2979 2980 2981 2982 2983 2983 2984 2985 2986 2987 2988 2988 2988 2989 2990 2990 2991 2992 2992 2993 2993 2994 2994 2995 2996 2996 2997 2997 2998 2998 2999 2999 3000 3000 3000 3001 3001 3002 3002 3002 3002 3003 3003 3003 3003 3003 3003 3003 3003 3003 3003 3003 3003 3003 3003 3003 3003 3003 3003 3003
2950 2951 2952 2953 2954 2955 2957 2958 2959 2960 2961 2962 2963 2964 2966 2967 2968 2969 2970 2971 2972 2973 2973 2975 2976 2977 2978 2978 2979 2980 2981 2982 2983 2983 2984 2985 2986 2986 2987 2988 2988 2988 2989 2990 2990 2991 2991 2992 2993 2993 2994 2994 2995 2995 2996 2996 2997 2997 2998 2998 2998 2999 2999 2999 3000 3000 3000 3000 3000 3000 3000 3000 3000 3000 3000 3000 3000 3000 3000 3000 3001 3001 3001 3001 3001 3001
2948 2949 2950 2951 2953 2954 2955 2956 2957 2958 2959 2961 2962 2963 2964 2965 2967 2968 2969 2970 2971 2971 2972 2973 2974 2975 2976 2977 2978 2978 2979 2980 2981 2982 2982 2983 2984 2984 2985 2986 2986 2987 2987 2988 2988 2989 2989 2990 2990 2991 2992 2993 2993 2993 2994 2994 2995 2995 2996 2996 2996 2997 2997 2997 2998 2998 2998 2998 2998 2998 2998 2998 2998 2998 2998 2998 2998 2998 2998 2998 2998 2999 2999 2999 2999 2999
2945 2947 2948 2949 2951 2952 2953 2954 2956 2957 2958 2959 2960 2962 2963 2964 2965 2966 2967 2968 2969 2970 2971 2972 2973 2974 2975 2975 2976 2977 2978 2978 2979 2980 2980 2981 2982 2983 2983 2984 2984 2985 2985 2986 2986 2987 2988 2988 2989 2989 2990 2990 2991 2991 2992 2992 2993 2993 2994 2994 2994 2994 2994 2995 2995 2995 2995 2995 2995 2995 2995 2995 2995 2996 2996 2996 2996 2996 2996 2996 2997 2997 2997 2997 2997 2997
2943 2944 2946 2947 2949 2950 2952 2953 2954 2955 2956 2958 2959 2960 2961 2963 2964 2965 2966 2967 2968 2968 2969 2970 2971 2972 2973 2974 2974 2975 2976 2977 2977 2978 2978 2979 2980 2980 2981 2982 2982 2983 2983 2984 2985 2985 2986 2986 2987 2988 2988 2988 2989 2990 2990 2990 2991 2991 2992 2992 2992 2992 2992 2992 2993 2993 2993 2993 2993 2993 2993 2993 2993 2993 2994 2994 2994 2994 2994 2994 2995 2995 2995 2995 2995 2995